Edwards AFB North Base, CA

2:00 AM PST on December 08, 2019 (GMT -0800)
Edwards AFB North Base

Weather History for K9L2 - May, 2019

Change the Weather History Date:

Thursday, May 16, 2019

  Actual Average (WUND) Record (WUND)
Temperature  
Mean Temperature 58 °F -  
Max Temperature 64 °F - - (-1)
Min Temperature 53 °F - - (-1)
Degree Days  
Heating Degree Days 6    
Growing Degree Days 8 (Base 50)    
Moisture  
Dew Point 42 °F    
Average Humidity 57    
Maximum Humidity 77    
Minimum Humidity 27    
Precipitation  
Precipitation 0.00 in - - ()
Sea Level Pressure  
Sea Level Pressure 29.80 in    
Wind  
Wind Speed 17 mph ()    
Max Wind Speed 28 mph    
Max Gust Speed 37 mph    
Visibility 9.8 miles    
Events Rain    
Averages and records for this station are not official NWS values.
T = Trace of Precipitation, MM = Missing Value Source: Averaged Metar Reports

Daily Weather History Graph

Daily Weather History Graph

Search for Another Location

Airport or City:

Astronomy

May. 16, 2019 Rise Set
Actual Time 5:47 AM PDT 7:48 PM PDT
Civil Twilight 5:19 AM PDT 8:17 PM PDT
Nautical Twilight 4:44 AM PDT 8:51 PM PDT
Astronomical Twilight 4:08 AM PDT 9:28 PM PDT
Moon 5:41 PM PDT (5/16) 4:38 AM PDT (5/16)
Length of Visible Light 14h 57m
Length of Day
14h 01m
Waxing Gibbous, 95% of the Moon is Illuminated
May 16
Waxing Gibbous
May 18
Full
May 26
Last Quarter
Jun 3
New
Jun 9
First Quarter

Hourly Weather History & Observations

Time (PDT) Temp. Dew Point Humidity Pressure Visibility Wind Dir Wind Speed Gust Speed Precip Events Conditions
12:58 AM 55.0 °F 44.4 °F 67% 29.79 in 10.0 mi SSW 23.0 mph 29.9 mph N/A   Scattered Clouds
1:28 AM 55.4 °F 44.6 °F 67% 29.79 in 10.0 mi SSW 18.4 mph 28.8 mph N/A   Mostly Cloudy
1:58 AM 54.9 °F 43.3 °F 65% 29.79 in 10.0 mi SSW 17.3 mph 23.0 mph N/A   Scattered Clouds
2:58 AM 54.3 °F 44.2 °F 69% 29.78 in 10.0 mi SW 16.1 mph - N/A   Overcast
3:28 AM 53.6 °F 44.6 °F 72% 29.79 in 10.0 mi WSW 15.0 mph - N/A   Partly Cloudy
3:58 AM 53.6 °F 45.0 °F 73% 29.78 in 10.0 mi WSW 11.5 mph - N/A   Clear
4:43 AM 53.6 °F 46.4 °F 77% 29.76 in 10.0 mi SSW 12.7 mph - N/A   Mostly Cloudy
4:58 AM 54.5 °F 45.7 °F 72% 29.76 in 10.0 mi SSW 13.8 mph - N/A   Overcast
5:43 AM 55.4 °F 44.6 °F 67% 29.74 in 10.0 mi SW 16.1 mph - N/A   Scattered Clouds
5:58 AM 54.3 °F 45.1 °F 71% 29.75 in 10.0 mi SW 18.4 mph - N/A   Mostly Cloudy
6:28 AM 55.4 °F 44.6 °F 67% 29.75 in 10.0 mi SW 15.0 mph - N/A   Scattered Clouds
6:58 AM 55.9 °F 45.1 °F 67% 29.77 in 10.0 mi WSW 18.4 mph 25.3 mph N/A   Mostly Cloudy
7:58 AM 57.4 °F 44.8 °F 63% 29.78 in 10.0 mi WSW 12.7 mph 21.9 mph N/A   Overcast
8:43 AM 59.0 °F 44.6 °F 59% 29.78 in 10.0 mi SW 18.4 mph - N/A   Overcast
8:58 AM 59.2 °F 45.5 °F 60% 29.78 in 10.0 mi SW 18.4 mph 26.5 mph N/A   Mostly Cloudy
9:05 AM 59.0 °F 46.4 °F 63% 29.78 in 9.0 mi SW 19.6 mph 26.5 mph N/A Rain Light Rain
9:15 AM 57.2 °F 48.2 °F 72% 29.78 in 8.0 mi SW 21.9 mph 28.8 mph N/A   Scattered Clouds
9:58 AM 61.7 °F 46.8 °F 58% 29.77 in 10.0 mi SW 19.6 mph 28.8 mph 0.00 in   Clear
10:55 AM 60.8 °F 46.4 °F 59% 29.78 in 10.0 mi West 19.6 mph - N/A   Scattered Clouds
10:58 AM 60.3 °F 46.4 °F 60% 29.77 in 10.0 mi West 21.9 mph - N/A   Partly Cloudy
11:58 AM 59.5 °F 42.3 °F 53% 29.80 in 9.0 mi WSW 23.0 mph - N/A   Clear
12:58 PM 63.1 °F 34.7 °F 35% 29.81 in 10.0 mi West 26.5 mph 32.2 mph N/A   Partly Cloudy
1:58 PM 63.7 °F 33.4 °F 32% 29.82 in 10.0 mi West 25.3 mph 33.4 mph N/A   Clear
2:58 PM 64.8 °F 30.0 °F 27% 29.82 in 9.0 mi West 24.2 mph 28.8 mph N/A   Partly Cloudy
3:58 PM 63.3 °F 32.9 °F 32% 29.82 in 10.0 mi West 26.5 mph 36.8 mph N/A   Clear
4:58 PM 61.7 °F 35.1 °F 37% 29.83 in 10.0 mi West 23.0 mph 35.7 mph N/A   Clear
5:58 PM 61.2 °F 33.3 °F 35% 29.83 in 10.0 mi WSW 27.6 mph 32.2 mph N/A   Clear
6:58 PM 59.0 °F 32.4 °F 37% 29.83 in 9.0 mi West 27.6 mph 31.1 mph N/A   Clear
7:58 PM 56.3 °F 33.6 °F 42% 29.86 in 10.0 mi WSW 19.6 mph - N/A   Clear
8:58 PM 55.9 °F 36.5 °F 48% 29.88 in 10.0 mi West 16.1 mph - N/A   Mostly Cloudy
9:58 PM 53.2 °F 39.4 °F 59% 29.90 in 10.0 mi WSW 23.0 mph - N/A   Partly Cloudy